Tracking 19245 objects as of 21-Aug-2018
HD Live streaming from Space Station
objects crossing your sky now

FENGYUN 1C DEB

Track FENGYUN 1C DEB now!
10-day predictions


NORAD ID: 30391
Int'l Code: 1999-025ADE
Perigee: 817.6 km
Apogee: 933.5 km
Inclination: 99.0 °
Period: 102.3 minutes
Semi major axis: 7246 km
RCS: 0.0444 m2 (small)
Launch date: May 10, 1999
Source: People's Republic of China (PRC)
Launch site: Taiyaun Space Center, China (TSC)

Note: This is SATELLITE DEBRIS
aabbcc
Your satellite tracking list
Your tracking list is empty




NASA's NSSDC Master Catalog

Two Line Element Set (TLE):
1 30391U 99025ADE 18232.60869955 +.00000277 +00000-0 +18629-3 0  9990
2 30391 099.0194 270.4151 0079959 226.9590 285.8654 14.07369778592390
Source of the keplerian elements: AFSPC